TIME,DELAY(SENSOR),PRES,OXYGEN,RAWTEMP,T(OPTODE),TCPHASE,FLUOR,BETA(BETA700),BETA(BETA412),BETA(BETA440),CDOM,C(CSC),ED(ED412.20),ED(ED444.00),ED(ED489.60),ED(ED554.30),LU(LU412.10),LU(LU443.90),LU(LU489.70),LU(LU554.70),COMP,TILTX,TILTY,CHECK
1365134608,5809,853.9299926757812000,33.9559211730957000,562.3067016601562000,4.4143848419189450,56.4733314514160160,55,100,100,78,82,15508,0,0,0,0,2147120045,2147771382,2147573595,2147569846,2640,2,13,54955
1365138204,5809,933.1699829101562000,38.9456405639648440,568.3732299804688000,4.2261052131652830,55.7581291198730500,56,99,98,79,82,15502,0,0,0,0,2147121014,2147770697,2147570898,2147568896,2505,2,13,7544
1365141804,5811,937.3400268554688000,39.2824096679687500,569.4194946289062000,4.1936001777648930,55.7182617187500000,55,99,100,78,81,15503,0,0,0,0,2147121371,2147771721,2147575076,2147570980,2908,2,13,26031
1365145404,5808,969.5499877929688000,40.7535400390625000,572.3076171875000000,4.1038298606872560,55.5307502746582000,55,98,101,78,81,15502,0,0,0,0,2147122633,2147771117,2147579154,2147568201,3541,2,13,12785
1365149004,5808,967.5499877929688000,41.2122688293457000,573.0897216796875000,4.0795059204101560,55.4665908813476560,55,97,99,78,82,15498,0,0,0,0,2147119844,2147774208,2147575168,2147568640,3547,2,13,22704
1365152604,5810,969.2999877929688000,41.4270210266113300,573.7667846679688000,4.0584430694580080,55.4452590942382800,54,99,100,78,81,15499,0,0,0,0,2147122084,2147772416,2147575524,2147569481,135,2,13,3460
1365156204,5810,1002.7100219726562000,42.3402900695800800,576.5098876953125000,3.9730820655822754,55.3404197692871100,54,104,100,78,82,15499,0,0,0,0,2147124781,2147774518,2147569709,2147569901,3501,2,13,10878
1365159804,5810,1011.0300292968750000,42.1305999755859400,575.0576171875000000,4.0182862281799320,55.3589096069335940,54,98,101,78,81,15499,0,0,0,0,2147123739,2147773229,2147571721,2147567076,238,2,13,11383
1365163404,5809,1009.4699707031250000,42.2804603576660160,574.7095947265625000,4.0291137695312500,55.3339118957519500,54,98,99,78,81,15498,0,0,0,0,2147122459,2147767222,2147571318,2147565229,1124,2,13,22471
1365167004,5812,1008.9299926757812000,41.3568305969238300,574.9777221679688000,4.0207710266113280,55.4690017700195300,55,99,101,78,82,15496,0,0,0,0,2147122313,2147776082,2147574692,2147569654,2,3,13,41224
1365170604,5808,1008.9299926757812000,41.7757911682128900,575.6538696289062000,3.9997251033782960,55.4153404235839840,54,101,100,79,81,15499,0,0,0,0,2147120694,2147774665,2147572544,2147567369,326,2,13,53797
1365174204,5808,1012.0399780273438000,41.2443084716796900,574.1381225585938000,4.0468940734863280,55.4781494140625000,54,100,100,78,83,15499,0,0,0,0,2147125668,2147767268,2147573869,2147568813,360,2,13,14881
1365177804,5810,1006.9699707031250000,41.4113197326660160,574.7092895507812000,4.0291228294372560,55.4597702026367200,55,97,100,77,81,15496,0,0,0,0,2147123574,2147770413,2147574025,2147568621,206,3,13,18873
1365181404,5810,1017.2800292968750000,41.8025588989257800,574.1945800781250000,4.0451369285583500,55.3969612121582000,55,98,100,78,81,15491,0,0,0,0,2147121920,2147776283,2147574930,2147570505,222,3,13,6847
1365185004,5814,1017.4699707031250000,42.0286483764648440,573.8328247070312000,4.0563907623291020,55.3581390380859400,56,99,100,78,82,15496,0,0,0,0,2147121298,2147774354,2147574226,2147565924,3181,2,13,55334
1365188604,5809,1009.5300292968750000,41.1977615356445300,574.6729125976562000,4.0302557945251465,55.4866409301757800,55,99,99,78,82,15493,0,0,0,0,2147125622,2147775277,2147573385,2147569152,581,2,13,7529
1365192204,5810,1002.1199951171875000,41.9572105407714840,576.4074707031250000,3.9762709140777590,55.3988113403320300,54,99,100,78,82,15494,0,0,0,0,2147120768,2147771163,2147577810,2147570642,1975,2,13,4505
1365195804,5811,1010.0000000000000000,42.1681900024414060,577.2122802734375000,3.9512140750885010,55.3778190612793000,54,96,100,77,82,15496,0,0,0,0,2147121453,2147773284,2147574290,2147573184,15,2,13,35489
1365199404,5811,1011.2700195312500000,42.2648200988769500,576.7739257812500000,3.9648630619049072,55.3566894531250000,55,97,100,77,82,15494,0,0,0,0,2147120768,2147776384,2147576009,2147570121,10,3,13,49030
1365203004,5811,1009.6699829101562000,42.2961692810058600,577.0518188476562000,3.9562110900878906,55.3508110046386700,55,97,101,78,83,15496,0,0,0,0,2147122779,2147775113,2147575021,2147565037,341,3,13,25781
1365206604,5808,1012.1699829101562000,41.7213211059570300,577.1129150390625000,3.9543089866638184,55.4390296936035160,55,101,101,77,81,15497,0,0,0,0,2147121984,2147773604,2147572745,2147564809,522,3,13,15573
1365210204,5806,1003.4400024414062000,42.2429008483886700,577.5795288085938000,3.9397790431976320,55.3654098510742200,56,103,100,76,82,15493,0,0,0,0,2147122057,2147776000,2147574518,2147565668,295,2,13,63998
1365213804,5809,1014.6900024414062000,42.6071395874023440,577.2672119140625000,3.9495050907135010,55.3078994750976560,54,97,101,78,81,15491,0,0,0,0,2147122916,2147774720,2147573915,2147565220,3564,2,13,9546
1365217404,5808,1017.5999755859375000,42.5238113403320300,576.5988769531250000,3.9703121185302734,55.3163108825683600,54,103,100,78,82,15491,0,0,0,0,2147121270,2147776256,2147574774,2147565668,411,2,13,57750
1365221004,5811,1015.6799926757812000,40.7670288085937500,576.3914794921875000,3.9767670631408690,55.5701789855957000,55,96,102,77,81,15487,0,0,0,0,2147120054,2147775305,2147571355,2147571190,233,2,13,2978
1365224604,5809,1017.2399902343750000,42.0152206420898440,576.0100708007812000,3.9886419773101807,55.3863487243652340,55,99,100,77,81,15486,0,0,0,0,2147123666,2147773440,2147571611,2147569051,3589,2,13,3794
1365228204,5809,1018.0800170898438000,42.0843582153320300,576.0427246093750000,3.9876248836517334,55.3709106445312500,55,98,101,78,80,15486,0,0,0,0,2147122304,2147775561,2147571666,2147571328,3180,3,13,61013
1365231804,5810,1016.8300170898438000,42.3156890869140600,576.0463256835938000,3.9875140190124510,55.3412208557128900,55,99,99,77,82,15485,0,0,0,0,2147120557,2147778093,2147576530,2147567451,3201,2,13,36509
1365235404,5810,1014.4899902343750000,41.5372200012207000,575.8414916992188000,3.9938890933990480,55.4550209045410160,55,97,100,78,82,15475,0,0,0,0,2147121691,2147772132,2147569645,2147568557,232,2,13,60440
1365239004,5810,1015.6599731445312000,41.6319389343261700,576.4813232421875000,3.9739720821380615,55.4487380981445300,54,108,100,78,82,15476,0,0,0,0,2147122770,2147772096,2147574336,2147570240,61,2,13,50635
1365242604,5810,1017.1300048828125000,41.6062507629394500,575.9768066406250000,3.9896759986877440,55.4412994384765600,55,115,98,78,81,15476,0,0,0,0,2147123254,2147775177,2147570880,2147570916,238,2,13,3144
1365246204,5809,1017.2600097656250000,41.7695884704589840,575.7979125976562000,3.9952468872070312,55.4143295288085940,55,98,100,79,82,15476,0,0,0,0,2147123190,2147773824,2147571675,2147569261,220,2,13,59537
1365249804,5813,1015.5399780273438000,42.5937194824218750,576.6682128906250000,3.9681529998779297,55.3064384460449200,54,98,99,78,82,15474,0,0,0,0,2147123977,2147767433,2147567917,2147572077,3116,2,13,62434
1365253404,5808,1024.6800537109375000,41.4958114624023440,575.1671142578125000,4.0148749351501465,55.4510612487793000,55,97,100,78,82,15475,0,0,0,0,2147123081,2147770550,2147569618,2147568457,268,2,13,34149
1365257004,5808,1024.8100585937500000,41.3641204833984400,575.0845947265625000,4.0174450874328610,55.4709892272949200,55,98,100,78,82,15472,0,0,0,0,2147120100,2147768292,2147568804,2147569252,3522,2,13,24323
1365260604,5809,1017.2700195312500000,41.6315002441406250,575.8024291992188000,3.9951040744781494,55.4380416870117200,55,99,100,77,81,15468,0,0,0,0,2147123922,2147770057,2147574025,2147569435,3496,2,13,45113
1365264204,5809,1014.1599731445312000,41.9316291809082000,576.2971191406250000,3.9797060489654540,55.4005699157714840,55,98,99,78,81,15467,0,0,0,0,2147122523,2147775597,2147571026,2147568146,529,2,13,27328
1365267804,5808,1014.6599731445312000,42.1611595153808600,576.4321899414062000,3.9755001068115234,55.3627891540527340,55,98,98,76,81,15468,0,0,0,0,2147119213,2147772763,2147571894,2147571117,118,2,13,31780
1365271404,5811,1013.2100219726562000,42.8760795593261700,576.6713256835938000,3.9680581092834473,55.2629318237304700,55,98,99,78,83,15469,0,0,0,0,2147120749,2147770258,2147570660,2147568978,3346,2,13,28988
1365275004,5810,1016.7000122070312000,42.7102699279785160,577.1829833984375000,3.9521241188049316,55.2929992675781250,55,97,100,78,82,15470,0,0,0,0,2147121435,2147775030,2147575670,2147567552,3530,2,13,57977
1365278604,5810,1009.9299926757812000,42.8778495788574200,577.2852172851562000,3.9489419460296630,55.2689895629882800,56,98,99,77,82,15467,0,0,0,0,2147120713,2147771465,2147575725,2147567780,3373,2,13,12409
1365279956,5810,1009.9000244140625000,42.5995101928710940,577.9921264648438000,3.9269289970397950,55.3166389465332000,55,97,101,78,82,15468,0,0,0,0,2147120000,2147772763,2147573028,2147568859,2720,2,13,45107
